UFO 4 (USA 108)

Last updated on Aug. 3, 2020, 5:32 a.m. UTC

1 23467U 95003A   20215.74589720 -.00000040  00000-0  00000-0 0  9996
2 23467   9.8363  20.6969 0005876  89.1942 282.6297  1.00274126 93476
UTC
Height (km)
Latitude
Longitude
Inclination
Orbital Period
UTC large
Height (km)
Speed (km/s)
/
Latitude / Longitude
Inclination (degrees)
Orbital Period (minutes)
Azimuth
Elevation
Range (km)
Doppler Factor
iOS Compass Heading
iOS Angle

Next 30 passes for location: Hong Kong

Rise time Rise Azimuth (degrees) Set time Set Azimuth (degrees) Duration Max altitude (degrees)

No matching passes for this satellites